Location: Chemnitz
(49.5500°N, 11.5830°E)
Time: 09:39:32
(UTC+01:00)

Envisat - Visible Passes

Search period start: 19 November 2017 00:00
Search period end: 29 November 2017 00:00
Orbit: 764 x 766 km, 98.2° (Epoch: 18 November)

Date Brightness Start Highest point End Pass type
(mag) Time Alt. Az. Time Alt. Az. Time Alt. Az.
19 Nov 4.9 18:09:40 13° NNE 18:09:40 13° NNE 18:10:38 10° NNE visible
19 Nov 5.1 19:49:53 17° NNW 19:49:53 17° NNW 19:51:04 10° NNW visible
20 Nov 4.9 19:12:49 18° N 19:12:49 18° N 19:14:10 10° N visible
21 Nov 4.9 18:35:46 15° NNE 18:35:46 15° NNE 18:36:56 10° N visible
21 Nov 5.5 20:15:59 14° NNW 20:15:59 14° NNW 20:16:38 10° NNW visible
22 Nov 5.0 17:58:42 11° NNE 17:58:42 11° NNE 17:59:03 10° NNE visible
22 Nov 5.2 19:38:55 16° N 19:38:55 16° N 19:39:56 10° N visible
23 Nov 5.0 19:01:51 16° N 19:01:51 16° N 19:02:56 10° N visible
24 Nov 5.0 18:24:47 13° NNE 18:24:47 13° NNE 18:25:34 10° NNE visible
24 Nov 5.5 20:04:59 13° NNW 20:04:59 13° NNW 20:05:33 10° NNW visible
25 Nov 5.2 19:27:55 15° N 19:27:55 15° N 19:28:46 10° N visible
26 Nov 5.0 18:50:50 14° N 18:50:50 14° N 18:51:40 10° N visible
27 Nov 5.1 18:13:45 11° NNE 18:13:45 11° NNE 18:14:09 10° NNE visible
27 Nov 5.5 19:53:58 13° NNW 19:53:58 13° NNW 19:54:27 10° NNW visible
28 Nov 5.2 19:16:53 14° N 19:16:53 14° N 19:17:34 10° N visible
